Time,TemperatureF,DewpointF,PressureIn,WindDirection,WindDirectionDegrees,WindSpeedMPH,WindSpeedGustMPH,Humidity,HourlyPrecipIn,Conditions,Clouds,dailyrainin,SoftwareType,DateUTC
2013-06-09 00:02:00,67.0,57.0,-100.00,East,80,1.0,8.0,70,-99.99,,,-99.99,,2013-06-09 05:02:00,
2013-06-09 00:12:00,67.0,56.0,-100.00,ESE,110,4.0,9.0,67,-99.99,,,-99.99,,2013-06-09 05:12:00,
2013-06-09 00:22:00,67.0,56.0,-100.00,ESE,110,4.0,9.0,67,-99.99,,,-99.99,,2013-06-09 05:22:00,
2013-06-09 00:32:00,67.0,55.0,-100.00,ENE,75,1.0,7.0,66,-99.99,,,-99.99,,2013-06-09 05:32:00,
2013-06-09 00:42:00,67.0,55.0,-100.00,SE,130,4.0,7.0,66,-99.99,,,-99.99,,2013-06-09 05:42:00,
2013-06-09 00:52:00,67.0,55.0,-100.00,SE,130,4.0,7.0,66,-99.99,,,-99.99,,2013-06-09 05:52:00,
2013-06-09 01:02:00,67.0,56.0,-100.00,ENE,60,0.0,9.0,68,-99.99,,,-99.99,,2013-06-09 06:02:00,
2013-06-09 01:12:00,67.0,56.0,-100.00,East,100,3.0,9.0,68,-99.99,,,-99.99,,2013-06-09 06:12:00,
2013-06-09 01:22:00,67.0,56.0,-100.00,East,100,3.0,9.0,68,-99.99,,,-99.99,,2013-06-09 06:22:00,
2013-06-09 01:32:00,66.0,56.0,-100.00,NNE,15,0.0,7.0,69,-99.99,,,-99.99,,2013-06-09 06:32:00,
2013-06-09 01:42:00,66.0,54.0,-100.00,ESE,105,2.0,7.0,65,-99.99,,,-99.99,,2013-06-09 06:42:00,
2013-06-09 01:52:00,66.0,54.0,-100.00,ESE,105,2.0,7.0,65,-99.99,,,-99.99,,2013-06-09 06:52:00,
2013-06-09 02:02:00,65.0,56.0,-100.00,NE,50,3.0,11.0,72,-99.99,,,-99.99,,2013-06-09 07:02:00,
2013-06-09 02:12:00,65.0,54.0,-100.00,ENE,70,1.0,7.0,67,-99.99,,,-99.99,,2013-06-09 07:12:00,
2013-06-09 02:22:00,65.0,54.0,-100.00,ENE,70,1.0,7.0,67,-99.99,,,-99.99,,2013-06-09 07:22:00,
2013-06-09 02:32:00,65.0,53.0,-100.00,East,100,1.0,7.0,66,-99.99,,,-99.99,,2013-06-09 07:32:00,
2013-06-09 02:42:00,65.0,54.0,-100.00,ESE,115,4.0,6.0,67,-99.99,,,-99.99,,2013-06-09 07:42:00,
2013-06-09 02:52:00,65.0,54.0,-100.00,ESE,115,4.0,6.0,67,-99.99,,,-99.99,,2013-06-09 07:52:00,
2013-06-09 03:02:00,65.0,54.0,-100.00,SE,135,4.0,8.0,67,-99.99,,,-99.99,,2013-06-09 08:02:00,
2013-06-09 03:12:00,65.0,55.0,-100.00,ESE,105,4.0,8.0,69,-99.99,,,-99.99,,2013-06-09 08:12:00,
2013-06-09 03:22:00,65.0,55.0,-100.00,ESE,105,4.0,8.0,69,-99.99,,,-99.99,,2013-06-09 08:22:00,
2013-06-09 03:32:00,65.0,55.0,-100.00,SE,130,4.0,15.0,69,-99.99,,,-99.99,,2013-06-09 08:32:00,
2013-06-09 03:42:00,66.0,57.0,-100.00,ESE,115,3.0,11.0,72,-99.99,,,-99.99,,2013-06-09 08:42:00,
2013-06-09 03:53:00,66.0,57.0,-100.00,ESE,115,3.0,11.0,72,-99.99,,,-99.99,,2013-06-09 08:53:00,
2013-06-09 04:02:00,65.0,55.0,-100.00,NNE,15,4.0,10.0,70,-99.99,,,-99.99,,2013-06-09 09:02:00,
2013-06-09 04:12:00,65.0,56.0,-100.00,NE,45,0.0,7.0,72,-99.99,,,-99.99,,2013-06-09 09:12:00,
2013-06-09 04:22:00,65.0,56.0,-100.00,NE,45,0.0,7.0,72,-99.99,,,-99.99,,2013-06-09 09:22:00,
2013-06-09 04:33:00,65.0,55.0,-100.00,ESE,120,4.0,9.0,71,-99.99,,,-99.99,,2013-06-09 09:33:00,
2013-06-09 04:43:00,65.0,56.0,-100.00,SE,130,4.0,11.0,72,-99.99,,,-99.99,,2013-06-09 09:43:00,
2013-06-09 04:52:00,65.0,56.0,-100.00,SE,130,4.0,11.0,72,-99.99,,,-99.99,,2013-06-09 09:52:00,
2013-06-09 05:03:00,64.0,56.0,-100.00,North,0,3.0,8.0,74,-99.99,,,-99.99,,2013-06-09 10:03:00,
2013-06-09 05:12:00,65.0,56.0,-100.00,NE,55,1.0,6.0,75,-99.99,,,-99.99,,2013-06-09 10:12:00,
2013-06-09 05:23:00,65.0,56.0,-100.00,NE,55,1.0,6.0,75,-99.99,,,-99.99,,2013-06-09 10:23:00,
2013-06-09 05:32:00,64.0,56.0,-100.00,East,90,1.0,4.0,75,-99.99,,,-99.99,,2013-06-09 10:32:00,
2013-06-09 05:43:00,65.0,57.0,-100.00,ENE,60,1.0,7.0,76,-99.99,,,-99.99,,2013-06-09 10:43:00,
2013-06-09 05:52:00,65.0,57.0,-100.00,ENE,60,1.0,7.0,76,-99.99,,,-99.99,,2013-06-09 10:52:00,
2013-06-09 06:02:00,65.0,57.0,-100.00,ESE,115,2.0,5.0,76,-99.99,,,-99.99,,2013-06-09 11:02:00,
2013-06-09 06:12:00,65.0,58.0,-100.00,ESE,110,1.0,6.0,76,-99.99,,,-99.99,,2013-06-09 11:12:00,
2013-06-09 06:22:00,65.0,58.0,-100.00,ESE,110,1.0,6.0,76,-99.99,,,-99.99,,2013-06-09 11:22:00,
2013-06-09 06:32:00,66.0,58.0,-100.00,ESE,105,5.0,9.0,76,-99.99,,,-99.99,,2013-06-09 11:32:00,
2013-06-09 06:42:00,66.0,58.0,-100.00,ESE,115,5.0,12.0,74,-99.99,,,-99.99,,2013-06-09 11:42:00,
2013-06-09 06:53:00,66.0,58.0,-100.00,ESE,115,5.0,12.0,74,-99.99,,,-99.99,,2013-06-09 11:53:00,
2013-06-09 07:02:00,67.0,58.0,-100.00,ESE,110,5.0,13.0,75,-99.99,,,-99.99,,2013-06-09 12:02:00,
2013-06-09 07:12:00,67.0,58.0,-100.00,SE,125,6.0,11.0,74,-99.99,,,-99.99,,2013-06-09 12:12:00,
2013-06-09 07:22:00,67.0,58.0,-100.00,SE,125,6.0,11.0,74,-99.99,,,-99.99,,2013-06-09 12:22:00,
2013-06-09 07:32:00,67.0,59.0,-100.00,SE,125,6.0,12.0,74,-99.99,,,-99.99,,2013-06-09 12:32:00,
2013-06-09 07:42:00,68.0,59.0,-100.00,SE,130,7.0,12.0,73,-99.99,,,-99.99,,2013-06-09 12:42:00,
2013-06-09 07:52:00,68.0,59.0,-100.00,SE,130,7.0,12.0,73,-99.99,,,-99.99,,2013-06-09 12:52:00,
2013-06-09 08:02:00,68.0,59.0,-100.00,SE,135,7.0,13.0,73,-99.99,,,-99.99,,2013-06-09 13:02:00,
2013-06-09 08:12:00,68.0,60.0,-100.00,ESE,105,4.0,13.0,75,-99.99,,,-99.99,,2013-06-09 13:12:00,
2013-06-09 08:22:00,68.0,60.0,-100.00,ESE,105,4.0,13.0,75,-99.99,,,-99.99,,2013-06-09 13:22:00,
2013-06-09 08:32:00,69.0,59.0,-100.00,ESE,110,8.0,14.0,72,-99.99,,,-99.99,,2013-06-09 13:32:00,
2013-06-09 08:42:00,68.0,59.0,-100.00,SE,130,10.0,15.0,72,-99.99,,,-99.99,,2013-06-09 13:42:00,
2013-06-09 08:52:00,68.0,59.0,-100.00,SE,130,10.0,15.0,72,-99.99,,,-99.99,,2013-06-09 13:52:00,
2013-06-09 09:02:00,69.0,59.0,-100.00,SE,125,8.0,15.0,72,-99.99,,,-99.99,,2013-06-09 14:02:00,
2013-06-09 09:12:00,69.0,60.0,-100.00,SE,130,9.0,13.0,73,-99.99,,,-99.99,,2013-06-09 14:12:00,
2013-06-09 09:22:00,69.0,60.0,-100.00,SE,130,9.0,13.0,73,-99.99,,,-99.99,,2013-06-09 14:22:00,
2013-06-09 09:32:00,69.0,59.0,-100.00,SE,135,11.0,17.0,72,-99.99,,,-99.99,,2013-06-09 14:32:00,
2013-06-09 09:42:00,69.0,60.0,-100.00,ESE,120,11.0,16.0,72,-99.99,,,-99.99,,2013-06-09 14:42:00,
2013-06-09 09:52:00,69.0,60.0,-100.00,ESE,120,11.0,16.0,72,-99.99,,,-99.99,,2013-06-09 14:52:00,
2013-06-09 10:02:00,70.0,60.0,-100.00,SE,130,11.0,19.0,70,-99.99,,,-99.99,,2013-06-09 15:02:00,
2013-06-09 10:12:00,70.0,60.0,-100.00,SE,135,9.0,17.0,72,-99.99,,,-99.99,,2013-06-09 15:12:00,
2013-06-09 10:22:00,70.0,60.0,-100.00,SE,135,9.0,17.0,72,-99.99,,,-99.99,,2013-06-09 15:22:00,
2013-06-09 10:33:00,70.0,60.0,-100.00,SE,125,10.0,14.0,71,-99.99,,,-99.99,,2013-06-09 15:33:00,
2013-06-09 10:43:00,69.0,61.0,-100.00,SSE,150,6.0,15.0,76,-99.99,,,-99.99,,2013-06-09 15:43:00,
2013-06-09 10:53:00,69.0,61.0,-100.00,SSE,150,6.0,15.0,76,-99.99,,,-99.99,,2013-06-09 15:53:00,
2013-06-09 11:03:00,68.0,62.0,-100.00,SE,145,6.0,9.0,80,-99.99,,,-99.99,,2013-06-09 16:03:00,
2013-06-09 11:13:00,69.0,62.0,-100.00,SE,140,8.0,14.0,78,-99.99,,,-99.99,,2013-06-09 16:13:00,
2013-06-09 11:23:00,69.0,62.0,-100.00,SE,140,8.0,14.0,78,-99.99,,,-99.99,,2013-06-09 16:23:00,
2013-06-09 11:33:00,70.0,63.0,-100.00,SSE,155,7.0,15.0,78,-99.99,,,-99.99,,2013-06-09 16:33:00,
2013-06-09 11:42:00,70.0,61.0,-100.00,SE,145,6.0,16.0,72,-99.99,,,-99.99,,2013-06-09 16:42:00,
2013-06-09 11:53:00,70.0,61.0,-100.00,SE,145,6.0,16.0,72,-99.99,,,-99.99,,2013-06-09 16:53:00,
2013-06-09 12:03:00,70.0,60.0,-100.00,SE,130,9.0,17.0,71,-99.99,,,-99.99,,2013-06-09 17:03:00,
2013-06-09 12:12:00,71.0,61.0,-100.00,SE,145,9.0,15.0,70,-99.99,,,-99.99,,2013-06-09 17:12:00,
2013-06-09 12:22:00,71.0,61.0,-100.00,SE,145,9.0,15.0,70,-99.99,,,-99.99,,2013-06-09 17:22:00,
2013-06-09 12:32:00,71.0,62.0,-100.00,SE,145,8.0,16.0,72,-99.99,,,-99.99,,2013-06-09 17:32:00,
2013-06-09 12:42:00,73.0,63.0,-100.00,SE,130,9.0,15.0,71,-99.99,,,-99.99,,2013-06-09 17:42:00,
2013-06-09 12:52:00,73.0,63.0,-100.00,SE,130,9.0,15.0,71,-99.99,,,-99.99,,2013-06-09 17:52:00,
2013-06-09 13:02:00,73.0,62.0,-100.00,SE,135,9.0,15.0,68,-99.99,,,-99.99,,2013-06-09 18:02:00,
2013-06-09 13:12:00,74.0,62.0,-100.00,SE,135,6.0,13.0,66,-99.99,,,-99.99,,2013-06-09 18:12:00,
2013-06-09 13:22:00,74.0,62.0,-100.00,SE,135,6.0,13.0,66,-99.99,,,-99.99,,2013-06-09 18:22:00,
2013-06-09 13:32:00,72.0,62.0,-100.00,SSE,150,4.0,16.0,71,-99.99,,,-99.99,,2013-06-09 18:32:00,
2013-06-09 13:42:00,71.0,62.0,-100.00,SSE,160,2.0,10.0,71,-99.99,,,-99.99,,2013-06-09 18:42:00,
2013-06-09 13:52:00,71.0,62.0,-100.00,SSE,160,2.0,10.0,71,-99.99,,,-99.99,,2013-06-09 18:52:00,
2013-06-09 14:02:00,71.0,62.0,-100.00,SE,125,5.0,8.0,73,-99.99,,,-99.99,,2013-06-09 19:02:00,
2013-06-09 14:12:00,70.0,62.0,-100.00,SE,130,4.0,11.0,76,-99.99,,,-99.99,,2013-06-09 19:12:00,
2013-06-09 14:22:00,70.0,62.0,-100.00,SE,130,4.0,11.0,76,-99.99,,,-99.99,,2013-06-09 19:22:00,
2013-06-09 14:32:00,69.0,63.0,-100.00,SSE,165,4.0,9.0,80,-99.99,,,-99.99,,2013-06-09 19:32:00,
2013-06-09 14:42:00,68.0,65.0,-100.00,NNE,30,1.0,7.0,91,-99.99,,,-99.99,,2013-06-09 19:42:00,
2013-06-09 14:52:00,68.0,65.0,-100.00,NNE,30,1.0,7.0,91,-99.99,,,-99.99,,2013-06-09 19:52:00,
2013-06-09 15:02:00,67.0,64.0,-100.00,East,95,2.0,9.0,90,-99.99,,,-99.99,,2013-06-09 20:02:00,
2013-06-09 15:12:00,67.0,64.0,-100.00,SE,140,2.0,6.0,90,-99.99,,,-99.99,,2013-06-09 20:12:00,
2013-06-09 15:22:00,67.0,64.0,-100.00,SE,140,2.0,6.0,90,-99.99,,,-99.99,,2013-06-09 20:22:00,
2013-06-09 15:32:00,67.0,64.0,-100.00,SSW,200,1.0,5.0,89,-99.99,,,-99.99,,2013-06-09 20:32:00,
2013-06-09 15:42:00,67.0,65.0,-100.00,SE,140,2.0,5.0,92,-99.99,,,-99.99,,2013-06-09 20:42:00,
2013-06-09 15:52:00,67.0,65.0,-100.00,SE,140,2.0,5.0,92,-99.99,,,-99.99,,2013-06-09 20:52:00,
2013-06-09 16:02:00,68.0,64.0,-100.00,SE,140,5.0,8.0,88,-99.99,,,-99.99,,2013-06-09 21:02:00,
2013-06-09 16:12:00,68.0,63.0,-100.00,SE,125,5.0,11.0,85,-99.99,,,-99.99,,2013-06-09 21:12:00,
2013-06-09 16:22:00,68.0,63.0,-100.00,SE,125,5.0,11.0,85,-99.99,,,-99.99,,2013-06-09 21:22:00,
2013-06-09 16:33:00,68.0,63.0,-100.00,SE,135,8.0,11.0,83,-99.99,,,-99.99,,2013-06-09 21:33:00,
2013-06-09 16:43:00,68.0,64.0,-100.00,East,80,2.0,10.0,86,-99.99,,,-99.99,,2013-06-09 21:43:00,
2013-06-09 16:53:00,68.0,64.0,-100.00,East,80,2.0,10.0,86,-99.99,,,-99.99,,2013-06-09 21:53:00,
2013-06-09 17:02:00,68.0,64.0,-100.00,SE,125,3.0,9.0,88,-99.99,,,-99.99,,2013-06-09 22:02:00,
2013-06-09 17:13:00,68.0,63.0,-100.00,ESE,120,5.0,10.0,84,-99.99,,,-99.99,,2013-06-09 22:13:00,
2013-06-09 17:23:00,68.0,63.0,-100.00,ESE,120,5.0,10.0,84,-99.99,,,-99.99,,2013-06-09 22:23:00,
2013-06-09 17:33:00,68.0,63.0,-100.00,ESE,120,4.0,10.0,85,-99.99,,,-99.99,,2013-06-09 22:33:00,
2013-06-09 17:42:00,68.0,63.0,-100.00,SE,130,6.0,11.0,84,-99.99,,,-99.99,,2013-06-09 22:42:00,
2013-06-09 17:52:00,68.0,63.0,-100.00,SE,130,6.0,11.0,84,-99.99,,,-99.99,,2013-06-09 22:52:00,
2013-06-09 18:02:00,68.0,63.0,-100.00,SE,135,7.0,13.0,84,-99.99,,,-99.99,,2013-06-09 23:02:00,
2013-06-09 18:12:00,68.0,63.0,-100.00,SE,130,5.0,8.0,83,-99.99,,,-99.99,,2013-06-09 23:12:00,
2013-06-09 18:22:00,68.0,63.0,-100.00,SE,130,5.0,8.0,83,-99.99,,,-99.99,,2013-06-09 23:22:00,
2013-06-09 18:32:00,69.0,63.0,-100.00,ESE,115,5.0,6.0,82,-99.99,,,-99.99,,2013-06-09 23:32:00,
2013-06-09 18:42:00,70.0,63.0,-100.00,SE,130,6.0,11.0,79,-99.99,,,-99.99,,2013-06-09 23:42:00,
2013-06-09 18:52:00,70.0,63.0,-100.00,SE,130,6.0,11.0,79,-99.99,,,-99.99,,2013-06-09 23:52:00,
2013-06-09 19:02:00,70.0,62.0,-100.00,SE,125,11.0,14.0,76,-99.99,,,-99.99,,2013-06-10 00:02:00,
2013-06-09 19:13:00,70.0,62.0,-100.00,SE,140,7.0,12.0,77,-99.99,,,-99.99,,2013-06-10 00:13:00,
2013-06-09 19:22:00,70.0,62.0,-100.00,SE,140,7.0,12.0,77,-99.99,,,-99.99,,2013-06-10 00:22:00,
2013-06-09 19:32:00,69.0,62.0,-100.00,SE,125,10.0,16.0,77,-99.99,,,-99.99,,2013-06-10 00:32:00,
2013-06-09 19:42:00,69.0,62.0,-100.00,SE,125,5.0,12.0,78,-99.99,,,-99.99,,2013-06-10 00:42:00,
2013-06-09 19:52:00,69.0,62.0,-100.00,SE,125,5.0,12.0,78,-99.99,,,-99.99,,2013-06-10 00:52:00,
2013-06-09 20:02:00,68.0,62.0,-100.00,NE,55,2.0,9.0,81,-99.99,,,-99.99,,2013-06-10 01:02:00,
2013-06-09 20:12:00,68.0,62.0,-100.00,East,100,6.0,11.0,81,-99.99,,,-99.99,,2013-06-10 01:12:00,
2013-06-09 20:22:00,68.0,62.0,-100.00,East,100,6.0,11.0,81,-99.99,,,-99.99,,2013-06-10 01:22:00,
2013-06-09 20:32:00,67.0,62.0,-100.00,ESE,110,1.0,4.0,83,-99.99,,,-99.99,,2013-06-10 01:32:00,
2013-06-09 20:43:00,66.0,62.0,-100.00,SE,135,1.0,4.0,85,-99.99,,,-99.99,,2013-06-10 01:43:00,
2013-06-09 20:52:00,66.0,62.0,-100.00,SE,135,1.0,4.0,85,-99.99,,,-99.99,,2013-06-10 01:52:00,
2013-06-09 21:02:00,66.0,62.0,-100.00,ENE,60,1.0,4.0,87,-99.99,,,-99.99,,2013-06-10 02:02:00,
2013-06-09 21:12:00,65.0,63.0,-100.00,ENE,65,0.0,2.0,91,-99.99,,,-99.99,,2013-06-10 02:12:00,
2013-06-09 21:22:00,65.0,63.0,-100.00,ENE,65,0.0,2.0,91,-99.99,,,-99.99,,2013-06-10 02:22:00,
2013-06-09 21:32:00,65.0,62.0,-100.00,ESE,110,0.0,2.0,90,-99.99,,,-99.99,,2013-06-10 02:32:00,
2013-06-09 21:42:00,65.0,62.0,-100.00,ESE,115,1.0,1.0,91,-99.99,,,-99.99,,2013-06-10 02:42:00,
2013-06-09 21:52:00,65.0,62.0,-100.00,ESE,115,1.0,1.0,91,-99.99,,,-99.99,,2013-06-10 02:52:00,
2013-06-09 22:02:00,65.0,62.0,-100.00,South,180,1.0,3.0,90,-99.99,,,-99.99,,2013-06-10 03:02:00,
2013-06-09 22:12:00,66.0,62.0,-100.00,SE,130,2.0,4.0,87,-99.99,,,-99.99,,2013-06-10 03:12:00,
2013-06-09 22:22:00,66.0,62.0,-100.00,SE,130,2.0,4.0,87,-99.99,,,-99.99,,2013-06-10 03:22:00,
2013-06-09 22:33:00,65.0,62.0,-100.00,ESE,110,0.0,1.0,91,-99.99,,,-99.99,,2013-06-10 03:33:00,
2013-06-09 22:43:00,65.0,62.0,-100.00,WSW,245,0.0,1.0,91,-99.99,,,-99.99,,2013-06-10 03:43:00,
2013-06-09 22:53:00,65.0,62.0,-100.00,WSW,245,0.0,1.0,91,-99.99,,,-99.99,,2013-06-10 03:53:00,
2013-06-09 23:03:00,65.0,59.0,-100.00,South,180,1.0,4.0,82,-99.99,,,-99.99,,2013-06-10 04:03:00,
2013-06-09 23:12:00,65.0,59.0,-100.00,SE,145,3.0,4.0,80,-99.99,,,-99.99,,2013-06-10 04:12:00,
2013-06-09 23:23:00,65.0,59.0,-100.00,SE,145,3.0,4.0,80,-99.99,,,-99.99,,2013-06-10 04:23:00,
2013-06-09 23:33:00,65.0,59.0,-100.00,SE,125,2.0,5.0,81,-99.99,,,-99.99,,2013-06-10 04:33:00,
2013-06-09 23:42:00,64.0,59.0,-100.00,SE,130,4.0,6.0,83,-99.99,,,-99.99,,2013-06-10 04:42:00,
2013-06-09 23:53:00,64.0,59.0,-100.00,SE,130,4.0,6.0,83,-99.99,,,-99.99,,2013-06-10 04:53:00,